weather.gov     
National Weather Service

Regional Weather Roundup
NWS Homepage
This page is being discontinued on March 12, 2014.
The same data is available at this site. Please update your bookmarks.
Thank you, and we apologize for the inconvenience.
Please send an email to SR-SRH.Webmaster@noaa.gov with any concerns.


Current Version
Previous Version:    01  02  03  04  05  06  07  08  09  10  11  12  13  14  15  16  17  18  19  20  21  22  23  24  25  26  
[Printable]
684
ASPQ40 PGUM 230212
RWRPQ
WEATHER ROUNDUP FOR THE MARIANAS AND MICRONESIA
NATIONAL WEATHER SERVICE TIYAN GU
1200 PM CHST THU OCT 23 2014

GUZ001>004-230300-
MARIANA ISLANDS-

CITY           SKY/WX    TMP DP  RH WIND       PRES   REMARKS
GUAM AIRPORT   CLOUDY    86  75  70 NE12      29.81F HX  95
ANDERSEN AFB   PTSUNNY   82  77  83 N9        29.82F HX  91
ROTA AIRPORT   MOSUNNY   84  77  79 NE14      29.83S HX  94
TINIAN AP      MOSUNNY   86  77  74 NE12      29.79F HX  97
SAIPAN AP      SUNNY     88  77  70 E10       29.80F HX 100

$$

PMZ161-230300-
REPUBLIC OF PALAU-

CITY           SKY/WX    TMP DP  RH WIND       PRES   REMARKS
KOROR AP       CLOUDY    82  79  89 W3        29.82F HX  93
KOROR WSO      CLOUDY    84  77  79 SW3       29.82F HX  94

$$

PMZ171>174-230300-
FEDERATED STATES OF MICRONESIA-

CITY           SKY/WX    TMP DP  RH WIND       PRES   REMARKS
YAP AIRPORT    PTSUNNY   86  77  74 VRB6      29.78F HX  97
CHUUK AP       CLOUDY    86  81  84 VRB3      29.82F HX 102
POHNPEI AP     CLOUDY    86  77  74 E12       29.79F HX  97
POHNPEI WSO    CLOUDY    86  79  79 N6        29.83F HX  99
KOSRAE AP      NOT AVBL

$$

PMZ181-230300-
REPUBLIC OF THE MARSHALL ISLANDS-

CITY           SKY/WX    TMP DP  RH WIND       PRES   REMARKS
KWAJALEIN AP   MOSUNNY   88  75  66 NE16      29.78F HX  97
MAJURO AP      NOT AVBL
MAJURO WSO     PTSUNNY   79  75  89 CALM      29.77F

$$





U.S. Dept. of Commerce
NOAA National Weather Service
1325 East West Highway
Silver Spring, MD 20910
E-mail: w-nws.webmaster@noaa.gov
Page last modified: May 16, 2007
NATIONAL WEATHER SERVICE: for Safety, for Work, for Fun - FOR LIFE